Temperature
22 21 20 20 19 19 21 23 25 27 28 29 30 29 28 27 26 24 24 24 24 24 23 22 22 22 22 21 21 21 21 20 20 20 20 20 20 20 20 20 20 20 20 20 20 19 19 19 19
22 21 20 20 19 21 22 24 26 27 28 29 29 29 28 26 25 24 23 24 24 24 23 23 22 22 22 21 21 21 21 20 20 20 20 20 20 20 20 20 20 20 20 20 20 20 20 19 19
22 21 20 19 20 21 23 25 27 28 29 29 29 28 27 26 25 24 25 24 24 24 23 23 22 22 22 21 21 21 21 20 20 20 20 20 20 20 20 20 20 20 20 20 20 20 20 20 19
22 21 20 20 21 23 25 27 28 29 29 29 28 27 26 26 26 25 25 24 24 24 23 23 23 22 22 22 21 21 21 21 20 20 20 20 20 20 20 20 20 20 20 20 20 20 20 20 20
21 21 20 20 22 25 27 28 29 28 28 28 27 25 25 26 27 25 24 24 24 24 23 23 23 22 22 22 21 21 21 21 21 20 20 20 20 20 20 20 20 20 20 20 20 20 20 20 20
21 20 20 21 24 27 28 29 29 29 28 27 26 25 25 25 25 25 24 24 24 24 23 23 23 22 22 22 22 21 21 21 21 21 20 20 20 20 20 20 20 20 20 20 20 20 20 20 20
21 20 21 23 25 26 29 30 29 28 28 27 26 24 25 24 25 24 24 24 24 24 24 23 23 22 22 22 22 21 21 21 21 21 20 20 20 20 20 20 20 20 20 20 20 20 20 20 20
23 20 21 22 24 26 29 29 29 28 27 27 26 24 24 25 24 24 24 23 23 23 23 23 23 22 22 22 22 21 21 21 21 21 21 20 20 20 20 20 19 19 19 19 20 20 20 20 20
24 21 20 22 24 26 28 28 29 27 26 26 26 25 25 25 24 23 23 22 22 22 22 23 22 22 22 22 21 21 21 21 21 20 20 20 20 20 20 19 19 19 19 19 19 19 19 19 19
24 20 21 24 25 26 27 28 28 26 25 24 24 25 25 25 24 23 22 22 22 22 22 22 22 22 22 21 21 20 20 20 20 20 20 20 20 19 19 19 19 18 18 18 18 18 19 19 19
24 22 24 25 27 27 27 28 28 26 23 23 23 24 24 24 24 23 22 22 21 21 21 21 21 21 21 21 20 20 20 20 20 20 19 19 19 19 19 19 18 18 18 18 18 18 18 18 19
24 25 26 27 28 28 28 28 27 25 24 24 24 24 23 23 23 22 21 21 21 21 21 21 21 20 20 20 20 19 19 19 19 19 19 19 19 19 19 19 18 18 18 18 18 18 18 18 18
25 25 27 28 28 28 28 27 25 24 23 23 23 23 23 22 22 22 21 21 21 21 21 20 20 20 20 19 19 19 19 19 18 18 18 18 18 18 18 18 18 18 17 17 17 17 17 17 17
26 26 27 27 27 28 27 25 24 22 22 21 21 21 21 21 21 21 21 20 20 20 20 20 19 19 19 19 19 19 19 18 18 18 18 18 18 18 18 17 17 17 17 17 17 17 17 17 17
27 25 24 25 26 26 26 23 22 21 21 20 20 20 20 20 20 20 20 20 20 20 20 19 19 19 19 19 19 19 19 18 18 18 18 18 18 17 17 17 17 17 17 17 17 17 17 17 17
24 23 23 24 25 25 24 21 21 20 20 19 19 19 19 19 19 20 20 20 19 19 19 19 19 19 19 19 19 18 18 18 18 18 18 17 17 17 17 17 17 17 17 17 17 16 16 17 17
22 22 23 24 24 24 22 20 20 19 19 18 18 18 18 18 18 19 19 19 19 19 19 19 19 19 19 19 18 18 18 18 17 17 17 17 17 17 17 17 17 16 16 16 16 16 16 16 16
22 22 23 23 23 22 20 19 19 19 19 18 18 18 18 18 18 18 19 19 19 19 19 19 19 18 18 18 18 18 17 17 17 17 17 16 16 16 16 16 16 16 16 16 16 16 16 16 16
24 23 23 23 23 21 19 18 18 18 18 18 18 18 18 18 18 18 18 18 19 19 19 19 19 18 18 18 18 17 17 17 17 16 16 16 16 16 16 16 16 15 15 15 15 15 15 16 15
24 23 23 22 23 21 19 18 18 17 17 17 18 18 18 18 18 18 18 18 19 19 19 19 18 18 18 18 17 17 17 16 16 16 16 16 15 15 15 15 15 15 15 15 15 15 15 15 15
24 23 23 22 21 20 19 18 17 17 17 18 18 18 18 18 18 19 19 19 19 19 19 18 18 18 17 17 17 16 16 16 16 16 15 15 15 15 15 15 15 14 14 14 14 14 14 14 14
23 24 24 23 20 18 19 17 17 16 17 17 18 18 19 19 19 19 19 19 19 19 18 18 18 17 17 17 16 16 16 15 15 15 15 15 14 14 14 14 14 14 14 14 14 14 14 14 14
23 24 23 21 19 17 18 17 17 16 16 17 17 18 19 19 19 19 19 19 19 19 18 18 17 17 17 16 16 15 15 15 14 14 14 14 14 14 14 14 14 14 14 14 14 14 14 14 14
24 21 20 18 17 17 17 17 16 15 16 17 18 18 19 19 20 20 20 19 19 18 18 18 17 17 16 16 15 15 15 14 14 14 14 13 13 13 13 13 13 13 13 13 13 13 13 13 13
22 20 19 18 17 17 17 17 16 17 17 17 17 18 19 20 20 20 19 19 19 18 18 17 17 16 16 15 15 14 14 14 14 13 13 13 13 13 13 13 13 13 13 13 13 13 13 13 13
22 21 19 19 18 17 17 16 17 18 18 18 18 19 19 20 20 20 19 19 18 18 17 17 16 16 15 15 14 14 13 13 13 13 12 12 12 12 12 12 12 12 12 12 12 12 12 12 13
23 21 20 17 17 16 17 17 17 18 18 18 19 19 19 20 20 19 19 18 18 17 17 16 16 15 14 14 13 13 13 12 12 12 12 12 12 12 12 12 12 12 12 12 12 12 12 12 12
22 21 19 18 17 18 18 17 17 18 18 18 18 19 19 19 19 19 18 18 17 17 16 16 15 14 14 13 13 12 12 12 11 11 11 11 11 11 11 11 11 11 11 11 11 11 11 11 11
22 22 19 17 18 17 18 18 19 18 18 18 18 20 20 19 19 18 18 17 17 16 16 15 14 13 13 12 12 12 11 11 11 10 10 10 10 10 10 10 10 10 11 11 11 11 11 11 11
22 22 20 19 19 17 17 18 20 19 19 19 20 20 20 19 18 18 17 17 16 15 15 14 13 13 12 12 11 11 11 10 10 10 10 9 9 9 9 9 9 10 10 10 10 10 10 10 10
Wind_Speed
11 8 3 1 2 1 4 6 4 6 5 3 6 9 8 6 4 4 4 17 20 19 18 22 23 22 22 21 21 20 19 18 18 18 17 17 16 16 16 15 15 14 14 13 13 13 13 13 12
9 5 2 1 2 1 5 5 5 7 5 1 6 8 8 7 8 9 7 15 21 19 17 20 23 22 22 21 20 20 19 18 18 17 17 16 16 15 15 14 13 13 13 13 13 13 12 12 11
7 4 1 1 1 4 6 6 8 7 6 1 3 5 5 5 7 6 10 18 18 15 15 20 23 22 22 21 20 19 19 18 17 17 16 16 15 14 14 13 13 13 13 12 12 12 12 11 10
4 2 1 1 7 8 8 11 9 6 3 3 5 5 4 3 5 11 18 19 18 13 14 20 22 22 21 20 20 19 18 18 17 17 16 15 15 14 14 13 13 12 12 12 12 12 11 10 10
2 2 2 4 7 8 12 14 8 5 1 3 7 6 4 5 17 22 19 18 18 13 12 18 21 21 20 20 19 18 18 17 17 16 15 15 14 14 13 13 13 12 12 12 12 12 11 10 9
1 2 2 6 7 9 10 11 6 3 5 5 7 7 3 7 18 19 18 16 16 16 11 16 20 20 20 19 18 17 17 16 16 15 15 14 14 14 13 13 13 13 12 12 12 12 12 11 10
3 2 5 7 8 9 8 5 1 5 6 4 6 6 3 6 13 17 16 16 15 14 11 10 15 17 18 18 17 17 16 16 15 15 14 14 14 13 13 13 13 13 13 13 13 13 13 12 12
5 0 5 5 7 9 9 6 2 4 5 4 4 7 5 6 10 15 15 14 14 12 10 8 10 12 13 15 17 17 16 16 15 15 14 14 14 13 13 13 14 14 15 15 15 15 15 14 14
2 0 6 6 6 9 11 8 4 5 8 6 5 5 7 9 14 17 15 12 11 10 8 9 8 9 11 12 15 16 16 16 15 14 15 14 12 12 12 14 15 16 17 17 17 17 17 16 16
4 4 10 9 9 11 15 9 2 5 8 6 7 7 9 12 14 16 15 12 10 10 9 9 9 9 10 11 11 10 11 12 12 11 12 11 11 11 12 13 17 18 19 19 19 19 18 16 13
6 9 13 16 18 14 12 9 2 7 5 6 11 10 9 12 13 13 12 10 10 9 9 9 9 8 8 6 7 7 7 8 10 11 11 11 10 10 10 9 12 16 18 16 16 17 15 13 12
7 13 15 16 18 13 11 4 3 4 7 9 11 11 12 12 11 11 10 9 8 8 7 8 8 7 7 5 5 5 4 5 6 9 11 9 5 5 5 5 8 10 11 10 11 10 12 13 13
9 12 14 15 15 10 7 0 6 9 14 15 15 15 14 11 10 10 11 9 6 6 5 6 6 6 5 5 4 4 3 3 5 6 8 8 4 4 3 3 4 6 8 7 6 7 8 9 10
8 9 11 12 11 6 0 4 7 10 14 16 16 15 13 11 10 10 10 7 5 4 4 4 5 4 5 4 3 3 3 4 4 4 5 6 4 3 3 3 3 3 5 7 7 8 8 9 8
6 9 12 8 6 4 4 9 9 10 14 16 16 15 14 11 10 9 7 8 6 4 4 5 5 4 5 4 3 2 2 4 3 3 4 4 4 3 2 2 3 3 4 5 5 6 5 7 8
7 6 7 9 7 6 8 7 7 8 14 14 13 13 12 9 8 8 7 6 5 5 6 6 5 5 4 4 3 2 2 3 2 3 3 3 2 2 2 2 3 3 3 3 4 4 5 6 6
5 4 7 8 7 5 8 6 6 7 11 11 9 9 9 8 7 6 6 5 5 5 6 6 6 5 5 4 3 3 2 2 1 2 2 2 1 1 1 2 2 3 3 3 4 3 4 5 5
6 4 5 5 5 10 10 9 8 7 8 8 8 6 7 7 6 6 6 5 5 5 6 6 6 5 4 4 3 3 3 2 1 1 1 1 2 1 1 1 2 2 2 3 3 3 3 4 5
6 3 4 3 2 8 12 10 8 7 6 5 5 6 5 4 5 5 5 6 6 5 6 5 5 4 3 2 2 2 2 1 1 1 1 1 1 2 2 1 2 2 2 3 4 3 4 4 3
4 3 3 1 4 6 9 7 5 5 4 3 3 4 3 2 3 4 5 5 5 5 5 5 4 3 2 2 1 1 1 1 0 1 2 2 2 2 2 2 2 2 2 3 3 3 2 3 3
4 3 4 3 4 7 5 4 3 2 2 1 2 2 3 4 5 6 5 5 5 6 6 5 5 4 2 2 1 2 3 3 3 2 3 3 4 3 3 3 3 2 2 3 3 2 2 3 3
3 2 3 5 5 3 2 1 3 3 2 1 2 2 4 4 5 5 6 7 7 7 6 6 5 4 3 2 2 2 1 1 3 3 3 5 4 4 4 4 4 4 3 3 3 2 2 2 3
2 1 5 6 6 4 4 1 4 4 3 4 4 5 5 5 5 6 7 8 7 6 5 5 4 3 3 3 3 2 2 3 3 3 4 5 5 4 4 4 4 4 3 4 3 2 2 2 3
6 5 7 7 5 3 4 1 4 3 4 5 5 7 6 5 5 6 6 4 3 3 4 3 3 2 2 2 2 3 4 4 4 4 5 4 4 4 4 4 4 4 4 4 4 3 3 3 3
5 5 4 5 5 1 3 1 5 7 6 6 7 7 7 5 4 3 4 3 3 4 3 3 3 1 2 1 2 3 4 4 5 5 5 5 4 4 5 4 4 4 5 5 4 3 4 3 3
1 6 5 3 3 2 2 3 7 8 7 6 6 5 4 3 2 2 3 3 3 3 4 3 2 1 1 2 3 3 4 3 4 5 4 5 4 5 6 5 5 5 5 5 5 4 5 4 4
2 1 5 7 4 3 2 4 7 5 6 6 5 4 4 3 3 4 5 5 5 4 3 3 2 1 2 3 3 3 3 3 4 5 4 4 5 5 5 5 5 6 6 6 6 5 6 5 5
4 4 5 5 4 3 2 3 4 6 6 5 5 5 5 4 4 5 5 5 4 3 2 2 1 0 2 2 3 3 4 4 5 4 5 6 6 5 6 6 6 6 6 6 6 6 6 6 6
5 3 4 4 5 6 3 4 6 9 8 7 7 7 7 5 6 5 4 3 3 2 2 1 1 2 2 3 3 4 5 5 5 5 6 6 6 6 7 7 7 7 7 7 6 7 7 8 7
2 3 5 4 0 4 5 4 4 8 7 8 7 6 6 7 6 5 4 2 2 2 2 2 2 3 3 3 4 4 5 5 6 6 7 7 7 7 7 7 7 8 8 7 7 8 8 8 9
Wind_Direction
166 161 162 134 37 21 276 263 275 305 322 357 58 83 85 70 114 142 124 142 139 146 151 150 147 146 144 143 142 140 138 137 135 134 133 132 131 131 131 131 132 132 132 131 131 130 129 128 127
162 164 158 44 86 359 280 262 273 276 267 38 56 71 72 68 82 104 115 141 141 144 147 149 148 146 146 145 144 143 143 142 142 141 141 141 140 140 139 139 139 140 139 139 139 138 137 136 135
172 184 152 106 220 208 255 269 264 274 287 296 76 46 57 88 101 114 137 139 136 138 142 150 148 148 147 147 147 147 147 147 148 148 149 149 149 149 149 148 147 148 148 149 149 147 147 147 147
161 151 320 231 242 242 245 264 265 270 320 17 100 64 36 36 113 129 136 139 136 135 140 150 149 149 150 150 151 152 152 153 154 155 156 156 157 159 159 158 158 159 159 159 159 159 158 159 162
109 140 231 255 244 247 256 260 243 239 223 99 104 93 40 24 114 129 139 142 138 135 141 149 149 151 152 153 155 157 157 159 160 161 162 163 165 166 167 169 170 171 171 170 170 172 172 175 178
124 163 223 260 267 277 258 251 246 193 146 120 105 106 92 118 126 139 142 141 140 141 141 149 152 153 154 156 159 160 161 163 165 167 168 170 173 176 178 179 181 182 183 183 183 184 186 188 192
173 212 242 267 295 299 293 282 241 126 112 118 124 104 115 137 139 141 139 135 136 141 142 146 153 156 158 160 163 165 166 167 170 173 176 179 182 186 188 190 192 193 194 194 195 196 198 200 203
189 153 288 291 299 292 304 333 4 106 114 111 107 123 161 167 133 130 128 128 132 138 145 144 150 155 159 164 169 172 173 175 179 182 185 188 192 196 200 202 203 205 205 205 205 204 206 208 211
208 264 266 264 273 280 305 324 349 60 87 75 77 117 152 142 122 121 122 122 132 143 153 156 158 160 163 167 177 178 181 184 186 190 194 196 200 205 209 213 215 216 215 215 214 213 213 214 217
167 213 248 243 254 279 298 304 296 98 80 75 81 87 115 117 118 123 131 136 143 154 168 172 171 170 169 178 178 181 186 190 192 195 200 200 202 209 217 224 226 226 224 223 222 222 220 218 220
200 225 254 265 267 269 279 295 332 127 102 142 136 128 112 99 103 111 126 139 149 160 172 177 178 176 178 181 169 181 191 193 198 200 205 206 207 214 222 225 235 233 229 226 227 227 223 220 217
239 255 258 267 272 269 265 274 46 98 134 126 115 105 87 92 96 106 114 120 128 147 181 177 174 175 185 174 168 176 188 196 201 210 210 207 210 216 222 221 227 225 223 217 219 220 221 223 222
252 260 268 271 278 272 271 110 96 88 100 103 96 85 84 92 95 96 106 115 122 140 166 164 161 163 162 147 159 159 168 175 184 199 210 207 209 218 216 229 234 227 221 214 217 222 222 224 224
257 278 293 296 290 292 281 87 86 95 102 91 84 79 82 84 83 89 95 109 104 107 117 132 124 126 120 121 133 143 147 148 155 170 177 186 196 204 214 231 240 237 223 224 224 226 226 228 227
300 319 317 316 319 314 75 52 75 108 103 93 88 87 86 88 91 90 93 94 97 92 102 120 112 98 96 104 111 114 122 130 136 153 157 163 175 181 190 223 242 248 240 232 231 228 226 231 230
347 345 323 317 345 343 83 82 61 88 97 90 91 90 91 90 94 98 100 97 97 92 84 77 90 79 82 85 90 90 105 113 129 140 143 150 170 190 194 228 252 260 256 239 234 228 230 236 234
359 327 308 320 5 33 76 94 65 72 90 92 92 95 98 95 89 97 110 110 103 94 91 83 78 71 63 62 63 58 65 81 123 134 143 153 178 188 202 230 257 265 258 251 247 230 230 240 246
274 291 298 314 11 70 83 79 68 54 83 99 98 94 101 109 120 119 114 113 106 100 94 88 81 68 57 47 37 34 33 23 36 131 177 180 217 232 229 251 277 277 271 267 255 249 245 242 248
250 273 305 322 71 81 83 77 59 39 51 74 98 96 93 111 139 131 126 123 112 103 97 91 88 81 75 59 38 32 3 339 349 315 279 260 263 246 221 251 271 269 261 260 255 247 254 254 248
277 262 264 38 64 84 91 82 71 59 43 32 64 89 107 141 153 143 140 139 134 135 132 128 127 124 113 116 130 165 231 285 292 339 324 300 281 261 235 227 244 255 263 279 268 244 246 258 234
302 235 222 165 79 69 88 34 2 10 46 55 103 137 180 189 184 170 163 165 162 164 166 160 164 153 145 128 78 35 25 9 1 341 310 299 287 272 253 231 233 247 239 256 269 258 231 254 258
284 245 161 127 100 48 45 256 304 316 335 320 204 215 218 217 197 185 180 182 188 190 179 173 174 171 169 139 118 125 135 270 266 269 280 294 290 278 260 237 229 236 232 234 249 232 241 237 257
204 94 105 110 102 69 17 86 298 313 302 289 267 243 235 221 205 200 198 195 194 186 175 177 175 181 190 180 172 170 218 239 265 284 300 300 294 285 275 257 241 232 231 234 242 247 240 229 240
120 79 57 59 73 53 329 43 298 265 254 274 276 264 243 222 216 204 207 184 168 151 148 154 161 199 222 216 213 212 235 254 278 291 294 293 291 289 281 262 250 242 235 236 237 237 243 242 254
82 86 41 22 30 297 301 344 264 258 248 249 261 263 255 226 214 202 192 171 153 136 135 134 145 221 259 251 260 249 246 252 258 268 273 279 284 283 279 266 248 247 244 242 240 240 247 248 256
120 126 147 171 185 233 295 261 264 265 264 264 259 257 256 245 218 172 163 138 117 115 113 116 131 203 270 275 281 286 283 272 266 264 264 265 260 263 266 259 251 247 244 244 239 244 246 243 248
88 60 151 127 110 117 249 280 296 268 262 255 236 224 220 207 154 136 122 111 110 112 117 130 139 238 283 287 291 296 295 285 280 281 276 271 270 276 277 267 261 255 248 240 232 239 244 238 238
132 142 85 99 133 139 202 238 240 237 230 227 205 189 189 167 129 121 118 118 120 123 118 110 113 268 296 307 303 305 294 288 283 285 285 279 276 278 283 279 271 266 259 250 238 239 242 237 237
17 43 101 117 145 142 176 255 222 203 198 187 186 180 172 151 138 136 132 126 118 99 80 46 5 339 319 312 305 309 301 297 294 286 281 280 277 278 276 272 269 266 262 255 245 242 242 238 239
192 195 140 122 32 129 137 256 248 181 182 173 175 172 154 142 140 139 132 114 85 44 1 344 326 315 299 294 299 299 297 300 300 293 287 283 279 277 273 272 269 266 263 252 245 248 248 238 237
Height
1529 1530 1531 1533 1534 1537 1534 1519 1506 1499 1493 1488 1485 1483 1487 1491 1496 1504 1500 1501 1505 1507 1511 1515 1518 1521 1523 1524 1526 1528 1530 1532 1533 1535 1536 1537 1539 1540 1541 1542 1543 1545 1546 1547 1547 1548 1549 1550 1550
1530 1531 1533 1533 1537 1542 1532 1511 1503 1496 1492 1489 1489 1488 1489 1493 1495 1497 1498 1503 1506 1508 1511 1515 1518 1521 1523 1525 1526 1528 1530 1532 1533 1535 1536 1538 1539 1540 1541 1543 1544 1545 1546 1547 1548 1549 1550 1550 1551
1530 1532 1533 1534 1536 1537 1525 1505 1497 1492 1489 1488 1490 1491 1493 1496 1497 1498 1501 1504 1507 1509 1512 1515 1518 1521 1523 1525 1526 1528 1530 1531 1533 1535 1536 1538 1539 1540 1542 1543 1544 1545 1546 1547 1548 1549 1550 1551 1552
1531 1533 1534 1536 1534 1522 1511 1500 1495 1492 1490 1488 1489 1493 1496 1498 1498 1500 1503 1506 1508 1510 1513 1516 1519 1521 1523 1525 1527 1528 1530 1531 1533 1534 1536 1537 1539 1540 1541 1543 1544 1545 1546 1547 1548 1549 1550 1551 1552
1531 1532 1535 1536 1527 1512 1503 1495 1493 1491 1490 1490 1489 1495 1498 1498 1498 1501 1505 1508 1509 1511 1514 1517 1519 1521 1523 1525 1527 1528 1530 1531 1533 1534 1535 1537 1538 1540 1541 1542 1543 1544 1545 1546 1547 1548 1550 1551 1552
1531 1530 1538 1536 1520 1506 1498 1492 1490 1490 1491 1491 1491 1495 1500 1501 1500 1503 1507 1510 1511 1513 1515 1518 1520 1522 1524 1525 1527 1528 1529 1531 1532 1534 1535 1536 1538 1539 1540 1541 1542 1543 1545 1546 1547 1548 1549 1550 1551
1530 1530 1532 1526 1518 1507 1495 1491 1490 1487 1489 1491 1492 1496 1501 1503 1503 1505 1508 1511 1513 1515 1517 1519 1521 1522 1524 1526 1527 1528 1529 1530 1532 1533 1534 1536 1537 1538 1539 1540 1541 1542 1543 1544 1545 1546 1547 1548 1550
1526 1527 1528 1524 1518 1509 1495 1493 1492 1489 1490 1491 1492 1495 1500 1503 1505 1506 1510 1513 1514 1516 1518 1519 1521 1523 1524 1526 1527 1528 1529 1530 1531 1532 1534 1535 1536 1537 1538 1539 1540 1541 1542 1543 1543 1544 1545 1546 1547
1524 1530 1532 1523 1516 1505 1495 1495 1494 1492 1490 1491 1492 1494 1497 1501 1504 1506 1509 1513 1515 1517 1518 1520 1521 1522 1524 1525 1527 1528 1529 1530 1531 1532 1533 1534 1535 1535 1536 1537 1538 1539 1540 1541 1542 1542 1543 1544 1545
1520 1529 1521 1510 1505 1501 1496 1494 1494 1494 1493 1494 1494 1495 1497 1500 1503 1505 1508 1511 1514 1517 1519 1520 1521 1522 1523 1525 1526 1527 1528 1529 1530 1531 1531 1532 1533 1533 1534 1535 1535 1536 1537 1538 1539 1540 1540 1541 1542
1515 1516 1507 1502 1499 1498 1496 1493 1492 1492 1496 1495 1494 1496 1499 1501 1503 1505 1509 1511 1514 1517 1519 1520 1521 1522 1523 1524 1525 1526 1527 1528 1528 1529 1530 1530 1531 1531 1532 1532 1533 1533 1534 1535 1536 1537 1537 1537 1538
1511 1506 1502 1498 1494 1493 1491 1491 1492 1491 1494 1495 1496 1498 1500 1503 1505 1507 1509 1511 1515 1517 1519 1520 1521 1522 1523 1523 1524 1525 1526 1526 1527 1527 1527 1528 1528 1528 1529 1529 1529 1530 1530 1531 1532 1532 1533 1533 1534
1506 1501 1497 1494 1491 1489 1488 1489 1492 1495 1496 1497 1498 1499 1500 1504 1507 1509 1512 1513 1515 1516 1518 1519 1520 1521 1522 1522 1523 1523 1524 1524 1524 1524 1524 1525 1525 1525 1525 1526 1526 1526 1526 1526 1527 1527 1528 1529 1529
1501 1497 1494 1490 1487 1486 1486 1491 1493 1501 1499 1499 1500 1502 1503 1506 1508 1511 1513 1514 1516 1516 1517 1518 1520 1522 1522 1521 1522 1522 1522 1522 1522 1522 1522 1522 1522 1521 1521 1522 1522 1521 1521 1522 1522 1522 1522 1523 1524
1498 1498 1493 1488 1486 1486 1487 1498 1500 1503 1503 1503 1504 1505 1506 1507 1509 1511 1513 1515 1516 1516 1517 1518 1519 1520 1520 1520 1520 1520 1520 1520 1520 1519 1519 1518 1518 1518 1517 1517 1517 1517 1516 1516 1516 1516 1517 1517 1518
1499 1503 1506 1493 1488 1487 1493 1512 1508 1507 1505 1507 1508 1508 1508 1511 1512 1512 1514 1516 1516 1516 1517 1518 1519 1519 1519 1519 1519 1519 1519 1518 1518 1517 1517 1516 1515 1514 1514 1513 1512 1512 1511 1510 1510 1510 1511 1512 1512
1510 1515 1510 1498 1491 1491 1499 1513 1512 1511 1509 1510 1511 1511 1511 1513 1515 1515 1516 1517 1517 1517 1517 1517 1518 1518 1518 1518 1518 1518 1517 1517 1516 1515 1515 1513 1512 1512 1511 1509 1508 1507 1506 1505 1504 1504 1505 1505 1506
1518 1513 1508 1504 1497 1496 1505 1514 1514 1513 1512 1512 1512 1514 1514 1516 1517 1517 1517 1518 1518 1518 1518 1518 1518 1518 1517 1517 1517 1517 1516 1515 1514 1513 1512 1511 1510 1509 1508 1506 1504 1503 1501 1500 1500 1499 1500 1500 1500
1503 1506 1507 1503 1497 1501 1510 1515 1515 1515 1515 1515 1514 1514 1517 1518 1518 1518 1518 1518 1518 1518 1518 1518 1518 1517 1517 1516 1516 1515 1514 1514 1512 1511 1510 1509 1507 1506 1504 1503 1501 1500 1498 1496 1495 1495 1494 1494 1495
1499 1505 1507 1504 1500 1505 1513 1516 1515 1516 1517 1517 1517 1516 1517 1518 1519 1519 1519 1518 1518 1518 1517 1517 1517 1517 1516 1516 1515 1514 1512 1511 1510 1509 1507 1505 1504 1503 1501 1500 1499 1497 1495 1493 1492 1491 1490 1490 1491
1499 1503 1504 1506 1506 1508 1513 1522 1521 1518 1515 1516 1516 1516 1518 1517 1518 1518 1517 1517 1517 1517 1517 1517 1517 1516 1515 1514 1513 1512 1510 1509 1507 1505 1504 1502 1501 1500 1498 1497 1495 1494 1492 1491 1489 1488 1487 1487 1487
1504 1494 1496 1501 1514 1526 1521 1535 1527 1523 1519 1518 1516 1516 1516 1516 1516 1516 1516 1516 1516 1516 1515 1515 1515 1514 1513 1512 1511 1509 1507 1506 1504 1502 1501 1499 1498 1496 1495 1493 1492 1491 1489 1488 1487 1486 1485 1484 1484
1496 1493 1497 1503 1517 1528 1526 1534 1531 1524 1522 1518 1514 1514 1514 1514 1515 1515 1515 1515 1515 1515 1514 1514 1513 1512 1511 1510 1508 1507 1505 1503 1501 1499 1497 1495 1494 1493 1491 1490 1488 1487 1486 1485 1484 1483 1483 1482 1481
1491 1499 1506 1514 1524 1540 1535 1536 1534 1525 1521 1516 1512 1512 1513 1513 1513 1513 1513 1514 1514 1513 1513 1512 1511 1510 1509 1507 1505 1504 1501 1499 1497 1495 1493 1492 1490 1489 1487 1486 1485 1484 1483 1482 1481 1480 1479 1478 1477
1494 1510 1528 1535 1544 1545 1535 1535 1531 1517 1514 1513 1512 1512 1512 1512 1512 1512 1512 1513 1512 1512 1511 1510 1509 1508 1506 1504 1502 1500 1498 1496 1494 1491 1489 1487 1486 1484 1483 1482 1481 1480 1478 1478 1477 1476 1476 1475 1474
1496 1505 1527 1540 1547 1545 1538 1538 1526 1512 1510 1511 1511 1512 1511 1511 1511 1511 1511 1511 1511 1510 1510 1508 1507 1505 1503 1501 1499 1497 1494 1492 1490 1487 1485 1483 1481 1480 1478 1477 1476 1475 1474 1473 1472 1472 1471 1471 1470
1495 1503 1505 1525 1537 1546 1542 1533 1521 1511 1511 1511 1511 1511 1510 1510 1510 1510 1510 1510 1510 1509 1508 1506 1504 1502 1500 1498 1495 1493 1490 1488 1485 1483 1480 1478 1476 1474 1473 1472 1470 1469 1468 1468 1467 1467 1467 1466 1466
1489 1494 1508 1523 1539 1545 1541 1536 1530 1516 1512 1510 1510 1510 1510 1509 1509 1509 1509 1508 1508 1507 1505 1503 1501 1499 1496 1494 1491 1489 1486 1483 1480 1478 1475 1473 1470 1468 1467 1465 1464 1463 1462 1462 1461 1461 1461 1461 1460
1494 1497 1505 1517 1522 1538 1545 1537 1510 1509 1508 1508 1508 1508 1508 1508 1508 1508 1508 1507 1506 1505 1503 1500 1498 1495 1493 1490 1487 1484 1481 1478 1475 1472 1469 1467 1464 1462 1460 1459 1457 1456 1456 1455 1454 1454 1454 1454 1455
1491 1494 1502 1517 1521 1525 1535 1533 1501 1503 1504 1505 1506 1506 1506 1507 1507 1507 1506 1505 1504 1502 1500 1497 1495 1492 1489 1486 1483 1479 1476 1473 1470 1467 1464 1461 1458 1456 1454 1452 1450 1449 1448 1448 1447 1447 1447 1447 1448